Probability
0 0 0 0 0 0 3 3 3 3 3 3 3 3 3 3 0 0 0 0 0 0 0 0 0 0 0 3 3 3 6 3 3 3 3 3 3 3 3 3 3 0 0
0 0 0 0 0 0 0 0 3 3 3 3 3 3 3 3 3 0 0 0 0 0 0 0 0 0 0 0 3 3 3 3 3 3 3 3 3 3 3 3 3 0 0
0 0 0 0 0 0 0 0 0 0 0 0 3 0 0 0 0 0 0 0 0 0 0 0 0 0 0 0 0 6 3 3 3 0 0 3 3 3 3 3 0 0 0
0 0 0 0 0 0 0 0 0 0 3 0 0 0 0 0 0 0 0 0 0 0 0 0 0 0 0 0 0 0 6 3 0 0 0 0 3 3 3 3 0 0 0
0 0 0 0 0 0 0 0 0 0 0 0 0 0 0 0 0 0 0 0 0 0 0 0 0 0 0 0 0 0 0 3 3 3 0 0 0 0 0 0 0 0 0
0 0 0 0 0 0 0 0 0 0 0 0 0 0 0 0 0 0 0 0 0 0 0 0 0 0 0 0 0 0 0 0 6 3 3 0 0 0 0 0 0 0 0
0 0 0 0 0 0 0 0 0 0 0 0 0 0 0 0 0 0 0 0 0 0 0 0 0 0 0 0 0 0 0 0 3 6 6 3 0 0 0 0 0 0 0
0 0 0 0 0 0 0 0 0 0 0 0 0 0 0 0 0 0 0 0 0 0 0 0 0 0 0 0 0 0 0 0 0 6 6 6 0 0 0 0 0 0 0
0 0 0 0 0 0 0 0 0 0 0 0 0 0 0 0 0 0 0 0 0 0 0 0 0 0 0 0 0 0 0 0 0 3 6 6 0 0 0 0 0 0 0
0 0 0 0 0 0 0 0 0 0 0 0 0 0 0 0 0 0 0 0 0 0 0 0 0 0 0 0 0 0 0 0 0 0 3 3 0 0 0 0 0 0 0
0 0 0 0 0 0 0 0 0 0 0 0 0 0 0 0 0 0 0 0 0 0 0 0 0 0 0 0 0 0 0 0 0 0 0 0 0 0 0 0 0 0 0
0 0 0 0 0 0 0 0 0 0 0 0 0 0 0 0 0 0 0 0 0 0 0 0 0 0 0 0 0 0 0 0 0 0 0 0 0 0 0 0 0 0 0
0 0 0 0 0 0 0 0 0 0 0 0 0 0 0 0 0 0 0 0 0 0 0 0 0 0 0 0 0 0 0 0 0 0 0 0 0 0 0 0 0 0 0
0 0 0 0 0 0 0 0 0 0 0 0 0 0 0 0 0 0 0 0 0 0 0 0 0 0 0 0 0 0 0 0 0 0 0 0 0 0 0 0 0 0 0
0 0 0 0 0 0 0 0 0 0 0 0 0 0 0 0 0 0 0 0 0 0 0 0 0 0 0 0 0 0 0 0 0 0 0 0 0 0 0 0 0 0 0
0 0 0 0 0 0 0 0 0 0 0 0 0 0 0 0 0 0 0 0 0 0 0 0 0 0 0 0 0 0 0 0 0 0 0 0 0 0 0 0 0 0 0
0 0 0 0 0 0 0 0 0 0 0 0 0 0 0 0 0 0 0 0 0 0 0 0 0 0 0 0 0 0 0 0 0 0 0 0 0 0 0 0 0 0 0
0 0 0 0 0 0 0 0 0 0 0 0 0 0 0 0 0 0 0 0 0 0 0 0 0 0 0 0 0 0 0 0 0 0 0 0 0 0 0 0 0 0 0
0 0 0 0 0 0 0 0 0 0 0 0 0 0 0 0 0 0 0 0 0 0 0 0 0 0 0 0 0 0 0 0 0 0 0 0 0 0 0 0 0 0 0
0 0 0 0 0 0 0 0 0 0 0 0 0 0 0 0 0 0 0 0 0 0 0 0 0 0 0 0 0 0 0 0 0 0 0 0 0 0 0 0 0 0 0
0 0 0 0 0 0 0 0 0 0 0 0 0 0 0 0 0 0 0 0 0 0 0 0 0 0 0 0 0 0 0 0 0 0 0 0 0 0 0 0 0 0 0
0 0 0 0 0 0 0 0 0 0 0 0 0 0 0 0 0 0 0 0 0 0 0 0 0 0 0 0 0 0 0 0 0 0 0 0 0 0 0 0 0 0 0
0 0 0 0 0 0 0 0 0 0 0 0 0 0 0 0 0 0 0 0 0 0 0 0 0 0 0 0 0 0 0 0 0 0 0 0 0 0 0 0 0 0 0
0 0 0 0 0 0 0 0 0 0 0 0 0 0 0 0 0 0 0 0 0 0 0 0 0 0 0 0 0 0 0 0 0 0 0 0 0 0 0 0 0 0 0
0 0 0 0 0 0 0 0 0 0 0 0 0 0 0 0 0 0 0 0 0 0 0 0 0 0 0 0 0 0 0 0 0 0 0 0 0 0 0 0 0 0 0
0 0 0 0 0 0 0 0 0 0 0 0 0 0 0 0 0 0 0 0 0 0 0 0 0 0 0 0 0 0 0 0 0 0 0 0 0 0 0 0 0 0 0
Height
5762 5762 5763 5763 5764 5765 5767 5768 5769 5770 5772 5773 5774 5775 5776 5776 5777 5778 5779 5780 5781 5781 5782 5783 5784 5784 5785 5786 5787 5787 5788 5788 5789 5790 5790 5790 5791 5791 5791 5792 5792 5792 5792
5751 5752 5753 5753 5754 5755 5756 5757 5759 5760 5761 5762 5764 5765 5766 5767 5768 5768 5769 5770 5771 5772 5773 5774 5775 5776 5777 5778 5779 5779 5780 5781 5781 5782 5783 5783 5784 5784 5785 5785 5785 5786 5786
5741 5742 5742 5743 5744 5744 5745 5746 5748 5749 5750 5752 5753 5754 5755 5756 5757 5758 5759 5760 5761 5762 5763 5764 5765 5766 5767 5768 5770 5771 5772 5772 5774 5774 5775 5775 5776 5777 5777 5778 5778 5778 5778
5731 5732 5732 5732 5733 5733 5734 5735 5737 5738 5739 5740 5742 5743 5744 5745 5746 5747 5748 5748 5750 5751 5752 5753 5754 5756 5757 5758 5760 5761 5762 5763 5764 5765 5766 5767 5768 5769 5769 5769 5770 5770 5770
5721 5721 5721 5721 5722 5722 5723 5724 5725 5726 5727 5729 5730 5731 5732 5734 5734 5735 5736 5737 5738 5739 5740 5742 5743 5745 5746 5748 5749 5751 5752 5754 5755 5756 5757 5758 5759 5760 5761 5761 5761 5762 5762
5710 5710 5710 5710 5710 5711 5711 5712 5713 5714 5715 5716 5718 5719 5720 5721 5722 5723 5724 5725 5726 5727 5728 5730 5731 5733 5735 5736 5738 5740 5742 5743 5745 5746 5747 5749 5750 5751 5752 5752 5752 5752 5753
5699 5699 5699 5699 5699 5699 5700 5700 5701 5701 5702 5703 5705 5707 5708 5709 5710 5711 5712 5713 5714 5715 5717 5718 5719 5721 5723 5725 5727 5729 5731 5733 5734 5736 5737 5739 5740 5742 5742 5743 5743 5743 5744
5688 5687 5687 5687 5687 5688 5688 5688 5688 5689 5690 5690 5692 5693 5695 5697 5698 5699 5700 5701 5702 5703 5705 5706 5708 5709 5711 5713 5715 5717 5719 5721 5723 5725 5727 5728 5730 5731 5732 5733 5733 5733 5734
5676 5676 5676 5675 5676 5676 5676 5676 5676 5677 5677 5678 5678 5680 5682 5684 5685 5687 5688 5689 5690 5691 5693 5694 5696 5697 5699 5701 5703 5705 5707 5709 5711 5714 5716 5717 5719 5720 5721 5722 5723 5723 5724
5665 5665 5664 5664 5664 5664 5664 5664 5664 5664 5665 5665 5666 5667 5669 5670 5672 5674 5676 5676 5678 5679 5680 5682 5684 5685 5687 5689 5691 5693 5695 5697 5700 5702 5704 5705 5707 5708 5710 5711 5711 5712 5713
5654 5653 5653 5653 5652 5652 5652 5652 5652 5653 5653 5653 5654 5655 5656 5657 5658 5660 5663 5664 5665 5666 5668 5670 5671 5673 5675 5677 5678 5680 5683 5685 5687 5689 5691 5693 5695 5696 5698 5699 5700 5700 5701
5642 5642 5642 5641 5641 5641 5641 5641 5640 5640 5641 5641 5642 5642 5643 5645 5646 5647 5649 5651 5653 5654 5655 5657 5659 5661 5663 5664 5666 5669 5671 5673 5675 5677 5679 5681 5683 5684 5685 5687 5688 5688 5689
5631 5631 5630 5630 5630 5629 5629 5629 5629 5629 5629 5629 5629 5630 5631 5632 5633 5634 5636 5638 5640 5642 5643 5645 5646 5649 5650 5652 5654 5656 5658 5661 5663 5665 5667 5668 5670 5671 5673 5674 5675 5676 5677
5621 5620 5619 5618 5618 5618 5617 5617 5617 5617 5617 5617 5617 5618 5619 5620 5621 5623 5624 5626 5627 5630 5631 5633 5634 5636 5638 5640 5642 5644 5646 5648 5650 5652 5654 5656 5657 5658 5660 5661 5662 5663 5664
5611 5610 5609 5608 5607 5606 5606 5606 5606 5605 5605 5605 5606 5607 5608 5609 5610 5611 5613 5614 5616 5618 5620 5621 5623 5624 5625 5628 5630 5632 5634 5636 5638 5640 5642 5643 5644 5646 5647 5648 5649 5650 5651
5600 5599 5598 5597 5596 5595 5595 5595 5595 5594 5594 5594 5594 5595 5596 5598 5599 5601 5602 5603 5604 5606 5608 5610 5611 5613 5614 5616 5618 5620 5622 5624 5626 5627 5629 5630 5631 5633 5634 5635 5636 5637 5638
5590 5589 5588 5586 5586 5585 5584 5584 5584 5583 5583 5583 5584 5584 5585 5587 5588 5590 5591 5592 5594 5595 5596 5598 5599 5601 5603 5604 5606 5608 5610 5612 5614 5615 5617 5618 5619 5620 5621 5622 5623 5624 5625
5580 5579 5577 5576 5575 5574 5573 5573 5573 5572 5572 5572 5573 5574 5575 5576 5578 5579 5580 5581 5582 5584 5585 5587 5588 5590 5591 5593 5594 5596 5598 5600 5602 5603 5605 5606 5607 5608 5609 5610 5611 5612 5613
5570 5568 5567 5566 5564 5563 5563 5562 5561 5561 5561 5562 5562 5563 5565 5566 5567 5568 5569 5570 5571 5572 5574 5575 5577 5579 5580 5581 5583 5584 5586 5588 5590 5592 5593 5594 5595 5596 5597 5598 5598 5600 5601
5559 5558 5556 5555 5554 5553 5552 5551 5550 5550 5550 5551 5552 5553 5554 5556 5557 5557 5559 5560 5561 5562 5563 5564 5566 5568 5569 5570 5572 5573 5575 5577 5579 5580 5581 5583 5584 5584 5585 5586 5587 5588 5589
5549 5547 5546 5544 5543 5542 5541 5540 5539 5539 5540 5540 5541 5543 5544 5545 5546 5547 5548 5549 5550 5551 5552 5554 5556 5557 5558 5560 5561 5562 5564 5566 5567 5569 5570 5571 5572 5573 5573 5574 5575 5576 5577
5539 5537 5535 5533 5532 5531 5530 5529 5529 5529 5529 5530 5531 5532 5533 5535 5536 5537 5538 5539 5540 5541 5542 5543 5545 5546 5548 5549 5551 5552 5553 5555 5557 5559 5558 5559 5560 5561 5561 5563 5563 5564 5565
5528 5526 5525 5523 5522 5521 5520 5519 5518 5518 5519 5520 5521 5522 5523 5525 5525 5526 5527 5528 5529 5530 5531 5533 5534 5535 5537 5539 5540 5541 5542 5544 5546 5547 5547 5547 5548 5549 5550 5550 5551 5552 5553
5518 5516 5515 5513 5512 5511 5510 5509 5508 5509 5510 5511 5512 5513 5514 5515 5516 5517 5517 5518 5519 5520 5521 5522 5524 5525 5526 5527 5528 5530 5532 5533 5534 5535 5536 5536 5537 5538 5538 5538 5539 5540 5540
5508 5506 5505 5503 5502 5501 5500 5499 5499 5499 5501 5502 5503 5504 5505 5506 5507 5508 5508 5509 5509 5510 5511 5512 5513 5514 5515 5516 5518 5519 5521 5522 5523 5524 5525 5525 5526 5526 5526 5527 5527 5528 5528
5498 5496 5495 5493 5492 5492 5491 5491 5491 5491 5493 5494 5495 5496 5497 5498 5498 5499 5499 5500 5501 5502 5502 5503 5504 5505 5505 5506 5507 5508 5509 5510 5512 5513 5514 5514 5515 5515 5516 5517 5517 5517 5517
Wind_Speed
39 40 39 39 40 40 41 41 41 41 40 40 40 39 39 38 38 37 37 36 36 35 35 35 35 33 33 33 33 32 32 32 32 32 31 31 31 31 31 30 31 30 30
40 40 41 41 41 41 42 42 43 43 43 42 42 42 41 41 41 40 40 39 38 38 37 37 37 36 36 35 35 34 34 34 34 34 33 32 32 32 32 32 32 32 32
41 41 42 42 43 43 43 43 44 44 44 44 44 43 43 43 43 43 43 42 42 41 41 40 40 39 39 39 38 37 37 36 36 35 35 34 34 34 34 34 34 34 34
41 41 42 43 44 45 45 45 46 46 46 46 45 45 45 45 45 45 45 44 44 43 43 43 42 41 41 41 40 39 39 38 37 37 37 36 36 36 36 36 36 36 36
42 42 43 43 44 44 45 46 46 47 47 47 47 47 46 46 46 46 46 45 45 44 43 43 43 43 42 42 42 41 40 40 39 39 38 38 38 37 37 37 37 36 37
42 43 43 44 43 44 45 45 46 47 48 49 49 48 48 48 47 47 46 46 46 45 44 44 44 44 44 43 43 43 43 41 40 40 40 40 40 39 38 38 38 38 38
43 43 43 44 44 45 45 46 46 47 48 49 50 50 49 49 48 47 46 46 47 46 45 45 45 44 44 44 45 45 45 45 44 43 42 42 41 41 40 40 39 39 39
45 45 44 42 43 44 45 46 46 46 47 48 49 50 49 48 48 47 47 47 47 47 47 46 46 45 45 46 46 46 46 46 46 45 45 44 44 44 43 43 42 41 41
45 45 45 44 44 44 44 43 44 46 46 46 48 49 48 47 47 47 48 48 48 48 48 47 47 46 46 47 47 47 47 47 46 46 47 46 45 45 45 43 43 43 43
45 45 45 45 45 44 44 43 43 44 44 45 46 47 48 48 48 48 48 49 49 49 49 48 48 47 47 47 48 48 48 48 48 49 48 47 48 47 47 47 46 45 45
44 44 44 44 44 45 45 45 44 44 44 45 46 47 48 48 49 48 49 49 49 49 49 49 49 48 47 47 47 47 48 48 49 49 49 49 49 49 49 48 48 47 47
43 43 44 44 44 44 44 44 44 45 45 46 47 47 48 48 49 49 49 49 48 48 49 49 49 48 48 48 48 48 48 49 49 49 50 50 50 51 51 50 49 49 49
42 42 42 42 43 43 43 43 43 43 44 45 46 47 47 47 47 48 48 48 47 47 47 48 49 49 49 48 48 49 49 50 50 50 50 50 50 51 51 51 50 49 49
40 41 42 42 42 43 43 43 43 43 43 43 44 44 45 45 45 45 46 45 46 46 47 46 46 47 47 47 47 48 49 49 49 49 50 50 49 49 49 50 50 49 49
39 39 41 42 42 42 43 43 42 42 42 43 43 43 44 44 44 44 45 45 45 45 45 45 45 45 46 46 47 47 48 48 48 48 49 49 49 49 49 48 49 49 48
38 38 39 39 40 41 41 41 40 41 41 42 43 43 43 43 43 44 44 44 44 44 45 45 45 45 45 45 46 47 47 47 47 47 47 47 48 48 48 49 49 48 48
37 38 38 39 39 39 39 40 40 40 41 41 42 42 42 42 42 42 43 43 43 44 44 43 44 44 44 44 45 47 48 47 48 47 47 47 47 47 47 47 48 48 47
37 38 38 39 39 39 39 39 40 40 40 40 40 40 40 40 41 41 42 42 43 44 44 43 43 43 44 44 45 47 48 48 48 47 46 46 45 45 46 46 46 46 45
37 38 38 39 40 40 40 40 40 40 40 39 38 38 39 39 39 40 41 41 41 42 43 43 43 43 44 44 44 45 46 47 47 47 46 46 45 45 45 45 44 44 44
37 38 38 39 39 39 39 39 39 39 39 38 38 38 39 39 39 39 39 40 40 40 41 42 42 42 43 43 43 43 44 44 45 45 45 45 45 44 44 44 44 43 43
37 37 37 37 37 37 37 37 37 37 37 37 38 38 39 39 39 39 39 39 39 40 40 40 41 41 42 42 41 42 43 42 43 43 44 44 44 44 45 44 43 42 42
36 36 35 35 35 35 35 35 35 35 35 36 36 37 37 37 38 38 38 39 40 39 39 39 40 40 40 40 40 41 42 41 42 42 43 43 44 44 43 43 43 42 42
35 34 35 35 35 35 34 34 34 34 34 34 34 34 35 36 36 36 37 37 38 38 38 39 38 38 39 39 40 41 41 41 41 42 42 42 43 43 43 43 42 42 43
34 34 35 34 34 34 33 33 33 33 32 32 32 32 33 33 34 34 34 34 35 35 36 37 37 37 37 38 39 40 40 40 40 41 42 42 42 42 41 41 42 42 42
34 34 34 33 33 32 32 32 32 31 31 30 30 31 31 31 31 31 31 32 32 32 33 34 35 35 36 37 38 39 39 39 38 39 40 40 39 40 40 39 39 40 42
33 33 32 31 30 29 29 29 29 29 28 28 28 28 28 28 28 28 29 30 31 31 32 33 34 34 34 35 36 37 38 38 38 37 37 37 37 38 37 36 37 38 39
Wind_Direction
260 260 260 259 257 257 257 256 256 256 257 257 258 259 260 261 261 262 262 262 261 261 261 262 261 260 261 261 262 261 262 263 263 263 263 263 262 264 265 266 266 267 269
261 260 259 259 258 258 257 257 257 257 257 258 258 258 258 259 260 262 262 263 262 261 261 261 260 260 261 262 261 262 262 262 262 262 262 263 263 263 265 265 265 267 268
263 261 260 260 260 259 259 259 258 257 257 257 258 258 259 259 259 261 261 262 262 261 261 261 260 260 261 261 261 261 261 261 262 262 262 263 264 265 265 266 267 267 268
264 263 262 261 261 261 260 259 259 258 257 258 258 258 259 259 260 260 261 262 262 261 261 261 261 260 260 260 260 261 261 260 260 262 262 263 264 265 265 266 268 268 268
264 263 262 262 262 262 261 260 260 259 259 259 259 259 260 260 260 261 261 261 262 261 261 261 260 260 259 258 259 260 260 259 260 261 262 262 263 264 265 267 268 268 268
265 265 263 263 263 262 261 261 260 261 261 260 260 260 260 260 260 261 260 260 260 260 261 260 260 259 258 258 258 258 259 258 259 260 261 262 263 263 264 267 268 268 268
266 266 266 266 264 263 263 263 262 262 262 261 260 259 260 260 259 259 259 259 259 259 260 260 259 259 258 257 256 257 257 257 258 259 260 260 262 263 265 266 268 268 267
267 267 268 266 265 265 265 264 263 262 262 261 261 260 260 260 259 258 258 258 258 258 259 259 259 259 258 257 256 256 256 257 257 258 259 260 261 261 264 264 265 267 268
268 268 268 268 267 266 266 266 265 263 262 262 261 260 259 259 259 259 259 259 258 258 258 259 259 258 258 257 256 256 256 256 256 257 258 260 261 261 262 263 264 267 268
269 269 269 269 268 268 267 268 267 265 264 263 262 260 259 259 259 258 258 258 258 257 257 258 258 258 258 257 256 255 255 256 257 257 258 259 260 261 262 263 264 266 267
269 269 268 268 268 268 267 267 268 265 265 264 262 260 259 259 259 258 258 257 257 256 256 257 257 257 257 257 256 256 255 256 256 257 258 259 260 260 261 263 264 265 265
269 269 268 268 268 269 268 268 267 266 265 264 263 261 260 259 259 259 258 257 257 256 256 255 256 256 256 256 256 256 256 256 257 258 259 259 260 260 261 262 264 265 265
269 268 269 269 269 270 269 268 268 267 266 265 263 262 260 260 259 260 260 258 257 256 257 256 256 256 257 257 257 257 256 257 258 259 260 261 261 261 262 262 263 263 263
269 269 269 269 270 270 269 269 269 268 266 264 263 261 260 260 260 259 259 259 259 258 257 258 257 257 256 257 257 257 257 257 259 260 261 261 262 262 262 262 263 263 264
272 272 271 271 271 271 270 269 268 268 266 264 263 262 260 260 259 259 259 260 260 259 257 257 257 257 257 256 257 257 257 257 259 260 261 263 263 262 263 264 264 264 264
272 273 272 272 271 270 270 269 268 268 266 264 263 262 261 260 260 260 260 260 261 260 259 258 257 257 257 257 257 257 256 257 259 260 262 264 263 263 264 264 265 265 265
273 273 273 272 272 271 270 268 268 268 267 265 264 262 261 261 261 261 261 261 261 260 260 259 258 257 257 258 258 258 257 257 258 261 263 265 264 263 264 265 265 265 265
275 274 273 273 273 272 270 269 268 268 267 265 264 262 261 261 262 262 262 262 262 261 261 259 258 258 258 259 259 258 258 258 260 261 263 264 265 264 265 265 265 265 265
276 276 275 274 273 273 272 271 270 268 267 265 263 261 261 262 262 263 263 263 263 262 261 260 260 260 260 260 261 261 260 260 261 262 264 265 265 266 266 265 265 265 267
276 276 276 276 274 273 273 272 270 269 266 264 262 262 262 263 264 264 263 263 262 262 262 261 261 261 262 262 262 262 261 261 262 264 265 265 265 265 265 266 266 267 267
277 277 277 276 274 274 273 271 270 268 267 264 263 263 263 264 264 264 264 264 264 264 263 262 262 263 262 262 263 263 262 261 263 264 266 265 264 265 265 265 266 267 267
277 277 277 276 275 274 273 272 270 268 265 263 263 262 262 263 264 264 264 264 264 264 263 263 263 263 262 262 262 263 262 262 263 265 267 266 264 264 265 266 266 266 267
278 277 277 276 275 274 273 271 269 267 264 264 263 263 263 263 263 264 264 263 263 262 262 262 262 262 261 261 262 262 262 263 264 265 267 267 265 265 266 265 266 267 267
278 278 278 277 275 274 272 270 268 265 263 262 262 262 263 263 263 263 263 263 262 261 260 260 260 260 260 261 262 261 261 263 265 266 266 266 267 267 265 265 265 265 267
278 278 277 276 274 272 271 269 267 265 263 262 261 262 262 262 262 263 262 262 261 260 259 260 261 261 261 262 263 262 262 263 265 265 265 266 266 266 266 266 265 266 268
280 279 276 274 272 271 270 268 265 263 262 260 260 261 261 261 262 262 261 261 262 262 262 262 262 261 262 263 263 264 263 263 265 266 264 265 266 266 265 264 264 265 268